Time,TemperatureF,DewpointF,PressureIn,WindDirection,WindDirectionDegrees,WindSpeedMPH,WindSpeedGustMPH,Humidity,HourlyPrecipIn,Conditions,Clouds,dailyrainin,SoftwareType,DateUTC
2013-03-23 00:22:00,27.0,24.0,-100.00,North,355,0.0,0.0,90,-99.99,,,-99.99,,2013-03-23 05:22:00,
2013-03-23 00:33:00,27.0,24.0,-100.00,North,355,0.0,0.0,90,-99.99,,,-99.99,,2013-03-23 05:33:00,
2013-03-23 00:42:00,27.0,24.0,-100.00,North,355,0.0,0.0,90,-99.99,,,-99.99,,2013-03-23 05:42:00,
2013-03-23 00:52:00,27.0,24.0,-100.00,North,355,0.0,0.0,90,-99.99,,,-99.99,,2013-03-23 05:52:00,
2013-03-23 01:02:00,27.0,24.0,-100.00,North,355,0.0,0.0,90,-99.99,,,-99.99,,2013-03-23 06:02:00,
2013-03-23 01:22:00,27.0,25.0,-100.00,North,355,0.0,0.0,95,-99.99,,,-99.99,,2013-03-23 06:22:00,
2013-03-23 01:32:00,27.0,25.0,-100.00,North,355,0.0,0.0,95,-99.99,,,-99.99,,2013-03-23 06:32:00,
2013-03-23 01:42:00,27.0,25.0,-100.00,North,355,0.0,0.0,95,-99.99,,,-99.99,,2013-03-23 06:42:00,
2013-03-23 01:52:00,27.0,25.0,-100.00,North,355,0.0,0.0,95,-99.99,,,-99.99,,2013-03-23 06:52:00,
2013-03-23 02:02:00,27.0,25.0,-100.00,North,355,0.0,0.0,95,-99.99,,,-99.99,,2013-03-23 07:02:00,
2013-03-23 02:22:00,25.0,25.0,-100.00,North,355,0.0,0.0,99,-99.99,,,-99.99,,2013-03-23 07:22:00,
2013-03-23 02:33:00,25.0,25.0,-100.00,North,355,0.0,0.0,99,-99.99,,,-99.99,,2013-03-23 07:33:00,
2013-03-23 02:42:00,25.0,25.0,-100.00,North,355,0.0,0.0,99,-99.99,,,-99.99,,2013-03-23 07:42:00,
2013-03-23 02:52:00,25.0,25.0,-100.00,North,355,0.0,0.0,99,-99.99,,,-99.99,,2013-03-23 07:52:00,
2013-03-23 03:02:00,25.0,25.0,-100.00,North,355,0.0,0.0,99,-99.99,,,-99.99,,2013-03-23 08:02:00,
2013-03-23 03:22:00,25.0,25.0,-100.00,North,355,0.0,0.0,99,-99.99,,,-99.99,,2013-03-23 08:22:00,
2013-03-23 03:32:00,25.0,25.0,-100.00,North,355,0.0,0.0,99,-99.99,,,-99.99,,2013-03-23 08:32:00,
2013-03-23 03:42:00,25.0,25.0,-100.00,North,355,0.0,0.0,99,-99.99,,,-99.99,,2013-03-23 08:42:00,
2013-03-23 03:52:00,25.0,25.0,-100.00,North,355,0.0,0.0,99,-99.99,,,-99.99,,2013-03-23 08:52:00,
2013-03-23 04:02:00,25.0,25.0,-100.00,North,355,0.0,0.0,99,-99.99,,,-99.99,,2013-03-23 09:02:00,
2013-03-23 04:22:00,24.0,24.0,-100.00,North,355,0.0,0.0,99,-99.99,,,-99.99,,2013-03-23 09:22:00,
2013-03-23 04:33:00,24.0,24.0,-100.00,North,355,0.0,0.0,99,-99.99,,,-99.99,,2013-03-23 09:33:00,
2013-03-23 04:43:00,24.0,24.0,-100.00,North,355,0.0,0.0,99,-99.99,,,-99.99,,2013-03-23 09:43:00,
2013-03-23 04:53:00,24.0,24.0,-100.00,North,355,0.0,0.0,99,-99.99,,,-99.99,,2013-03-23 09:53:00,
2013-03-23 05:03:00,24.0,24.0,-100.00,North,355,0.0,0.0,99,-99.99,,,-99.99,,2013-03-23 10:03:00,
2013-03-23 05:24:00,24.0,24.0,-100.00,North,355,0.0,0.0,99,-99.99,,,-99.99,,2013-03-23 10:24:00,
2013-03-23 05:34:00,24.0,24.0,-100.00,North,355,0.0,0.0,99,-99.99,,,-99.99,,2013-03-23 10:34:00,
2013-03-23 05:43:00,24.0,24.0,-100.00,North,355,0.0,0.0,99,-99.99,,,-99.99,,2013-03-23 10:43:00,
2013-03-23 05:52:00,24.0,24.0,-100.00,North,355,0.0,0.0,99,-99.99,,,-99.99,,2013-03-23 10:52:00,
2013-03-23 06:03:00,24.0,24.0,-100.00,North,355,0.0,0.0,99,-99.99,,,-99.99,,2013-03-23 11:03:00,
2013-03-23 09:23:00,31.0,29.0,-100.00,North,355,0.0,0.0,92,-99.99,,,-99.99,,2013-03-23 14:23:00,
2013-03-23 09:33:00,31.0,29.0,-100.00,North,355,0.0,0.0,92,-99.99,,,-99.99,,2013-03-23 14:33:00,
2013-03-23 09:43:00,31.0,29.0,-100.00,North,355,0.0,0.0,92,-99.99,,,-99.99,,2013-03-23 14:43:00,
2013-03-23 09:53:00,31.0,29.0,-100.00,North,355,0.0,0.0,92,-99.99,,,-99.99,,2013-03-23 14:53:00,
2013-03-23 10:22:00,33.0,26.0,-100.00,North,355,0.0,0.0,76,-99.99,,,-99.99,,2013-03-23 15:22:00,
2013-03-23 10:34:00,33.0,26.0,-100.00,North,355,0.0,0.0,76,-99.99,,,-99.99,,2013-03-23 15:34:00,
2013-03-23 10:44:00,33.0,26.0,-100.00,North,355,0.0,0.0,76,-99.99,,,-99.99,,2013-03-23 15:44:00,
2013-03-23 10:53:00,33.0,26.0,-100.00,North,355,0.0,0.0,76,-99.99,,,-99.99,,2013-03-23 15:53:00,
2013-03-23 11:03:00,33.0,26.0,-100.00,North,355,0.0,0.0,76,-99.99,,,-99.99,,2013-03-23 16:03:00,
2013-03-23 11:23:00,35.0,26.0,-100.00,North,355,0.0,0.0,68,-99.99,,,-99.99,,2013-03-23 16:23:00,
2013-03-23 11:33:00,35.0,26.0,-100.00,North,355,0.0,0.0,68,-99.99,,,-99.99,,2013-03-23 16:33:00,
2013-03-23 11:43:00,35.0,26.0,-100.00,North,355,0.0,0.0,68,-99.99,,,-99.99,,2013-03-23 16:43:00,
2013-03-23 11:53:00,35.0,26.0,-100.00,North,355,0.0,0.0,68,-99.99,,,-99.99,,2013-03-23 16:53:00,
2013-03-23 12:02:00,35.0,26.0,-100.00,North,355,0.0,0.0,68,-99.99,,,-99.99,,2013-03-23 17:02:00,
2013-03-23 12:23:00,37.0,26.0,-100.00,North,355,0.0,0.0,64,-99.99,,,-99.99,,2013-03-23 17:23:00,
2013-03-23 12:33:00,37.0,26.0,-100.00,North,355,0.0,0.0,64,-99.99,,,-99.99,,2013-03-23 17:33:00,
2013-03-23 12:43:00,37.0,26.0,-100.00,North,355,0.0,0.0,64,-99.99,,,-99.99,,2013-03-23 17:43:00,
2013-03-23 12:53:00,37.0,26.0,-100.00,North,355,0.0,0.0,64,-99.99,,,-99.99,,2013-03-23 17:53:00,
2013-03-23 13:03:00,37.0,26.0,-100.00,North,355,0.0,0.0,64,-99.99,,,-99.99,,2013-03-23 18:03:00,
2013-03-23 13:23:00,39.0,23.0,-100.00,North,355,0.0,0.0,52,-99.99,,,-99.99,,2013-03-23 18:23:00,
2013-03-23 13:32:00,39.0,23.0,-100.00,North,355,0.0,0.0,52,-99.99,,,-99.99,,2013-03-23 18:32:00,
2013-03-23 13:43:00,39.0,23.0,-100.00,North,355,0.0,0.0,52,-99.99,,,-99.99,,2013-03-23 18:43:00,
2013-03-23 13:53:00,39.0,23.0,-100.00,North,355,0.0,0.0,52,-99.99,,,-99.99,,2013-03-23 18:53:00,
2013-03-23 14:23:00,40.0,22.0,-100.00,North,355,0.0,0.0,48,-99.99,,,-99.99,,2013-03-23 19:23:00,
2013-03-23 14:33:00,40.0,22.0,-100.00,North,355,0.0,0.0,48,-99.99,,,-99.99,,2013-03-23 19:33:00,
2013-03-23 14:43:00,40.0,22.0,-100.00,North,355,0.0,0.0,48,-99.99,,,-99.99,,2013-03-23 19:43:00,
2013-03-23 14:53:00,40.0,22.0,-100.00,North,355,0.0,0.0,48,-99.99,,,-99.99,,2013-03-23 19:53:00,
2013-03-23 15:02:00,40.0,22.0,-100.00,North,355,0.0,0.0,48,-99.99,,,-99.99,,2013-03-23 20:02:00,
2013-03-23 15:23:00,40.0,23.0,-100.00,North,355,0.0,0.0,51,-99.99,,,-99.99,,2013-03-23 20:23:00,
2013-03-23 15:32:00,40.0,23.0,-100.00,North,355,0.0,0.0,51,-99.99,,,-99.99,,2013-03-23 20:32:00,
2013-03-23 15:43:00,40.0,23.0,-100.00,North,355,0.0,0.0,51,-99.99,,,-99.99,,2013-03-23 20:43:00,
2013-03-23 15:53:00,40.0,23.0,-100.00,North,355,0.0,0.0,51,-99.99,,,-99.99,,2013-03-23 20:53:00,
2013-03-23 16:02:00,40.0,23.0,-100.00,North,355,0.0,0.0,51,-99.99,,,-99.99,,2013-03-23 21:02:00,
2013-03-23 16:23:00,39.0,26.0,-100.00,North,355,0.0,0.0,57,-99.99,,,-99.99,,2013-03-23 21:23:00,
2013-03-23 16:33:00,39.0,26.0,-100.00,North,355,0.0,0.0,57,-99.99,,,-99.99,,2013-03-23 21:33:00,
2013-03-23 16:43:00,39.0,26.0,-100.00,North,355,0.0,0.0,57,-99.99,,,-99.99,,2013-03-23 21:43:00,
2013-03-23 16:54:00,39.0,26.0,-100.00,North,355,0.0,0.0,57,-99.99,,,-99.99,,2013-03-23 21:54:00,
2013-03-23 17:03:00,39.0,26.0,-100.00,North,355,0.0,0.0,57,-99.99,,,-99.99,,2013-03-23 22:03:00,
2013-03-23 17:23:00,38.0,26.0,-100.00,North,355,0.0,0.0,61,-99.99,,,-99.99,,2013-03-23 22:23:00,
2013-03-23 17:33:00,38.0,26.0,-100.00,North,355,0.0,0.0,61,-99.99,,,-99.99,,2013-03-23 22:33:00,
2013-03-23 17:43:00,38.0,26.0,-100.00,North,355,0.0,0.0,61,-99.99,,,-99.99,,2013-03-23 22:43:00,
2013-03-23 17:53:00,38.0,26.0,-100.00,North,355,0.0,0.0,61,-99.99,,,-99.99,,2013-03-23 22:53:00,
2013-03-23 18:02:00,38.0,26.0,-100.00,North,355,0.0,0.0,61,-99.99,,,-99.99,,2013-03-23 23:02:00,
2013-03-23 18:23:00,37.0,26.0,-100.00,North,355,0.0,0.0,63,-99.99,,,-99.99,,2013-03-23 23:23:00,
2013-03-23 18:33:00,37.0,26.0,-100.00,North,355,0.0,0.0,63,-99.99,,,-99.99,,2013-03-23 23:33:00,
2013-03-23 18:43:00,37.0,26.0,-100.00,North,355,0.0,0.0,63,-99.99,,,-99.99,,2013-03-23 23:43:00,
2013-03-23 18:52:00,37.0,26.0,-100.00,North,355,0.0,0.0,63,-99.99,,,-99.99,,2013-03-23 23:52:00,
2013-03-23 19:02:00,37.0,26.0,-100.00,North,355,0.0,0.0,63,-99.99,,,-99.99,,2013-03-24 00:02:00,
2013-03-23 19:23:00,34.0,28.0,-100.00,North,355,0.0,0.0,77,-99.99,,,-99.99,,2013-03-24 00:23:00,
2013-03-23 19:33:00,34.0,28.0,-100.00,North,355,0.0,0.0,77,-99.99,,,-99.99,,2013-03-24 00:33:00,
2013-03-23 19:42:00,34.0,28.0,-100.00,North,355,0.0,0.0,77,-99.99,,,-99.99,,2013-03-24 00:42:00,
2013-03-23 19:52:00,34.0,28.0,-100.00,North,355,0.0,0.0,77,-99.99,,,-99.99,,2013-03-24 00:52:00,
2013-03-23 20:02:00,34.0,28.0,-100.00,North,355,0.0,0.0,77,-99.99,,,-99.99,,2013-03-24 01:02:00,
2013-03-23 22:23:00,31.0,31.0,-100.00,North,355,0.0,0.0,99,-99.99,,,-99.99,,2013-03-24 03:23:00,
2013-03-23 22:33:00,31.0,31.0,-100.00,North,355,0.0,0.0,99,-99.99,,,-99.99,,2013-03-24 03:33:00,
2013-03-23 22:43:00,31.0,31.0,-100.00,North,355,0.0,0.0,99,-99.99,,,-99.99,,2013-03-24 03:43:00,
2013-03-23 22:53:00,31.0,31.0,-100.00,North,355,0.0,0.0,99,-99.99,,,-99.99,,2013-03-24 03:53:00,
2013-03-23 23:02:00,31.0,31.0,-100.00,North,355,0.0,0.0,99,-99.99,,,-99.99,,2013-03-24 04:02:00,
2013-03-23 23:23:00,31.0,31.0,-100.00,North,355,0.0,0.0,99,-99.99,,,-99.99,,2013-03-24 04:23:00,
2013-03-23 23:33:00,31.0,31.0,-100.00,North,355,0.0,0.0,99,-99.99,,,-99.99,,2013-03-24 04:33:00,
2013-03-23 23:43:00,31.0,31.0,-100.00,North,355,0.0,0.0,99,-99.99,,,-99.99,,2013-03-24 04:43:00,
2013-03-23 23:53:00,31.0,31.0,-100.00,North,355,0.0,0.0,99,-99.99,,,-99.99,,2013-03-24 04:53:00,